#timestamp,LO_Frequency,Hit,StdDev 
1636016415.0,286047004.7,N
1636016415.9,286047004.7,N
1636016435.8,286047005.2,N
1636016455.6,286047004.8,N
1636016475.5,286047007.3,N
1636016495.3,286047005.2,N
1636016515.1,286047005.1,N
1636016535.9,286047005.3,N
1636016555.7,286047007.2,N
1636016575.5,286047006.4,N
1636016595.4,286047005.0,N
1636016615.2,286047007.1,N
1636016635.1,286047004.8,N
1636016636.0,286047004.8,Y
1636016655.8,286047002.0,P
1636016675.6,286047001.8,N
1636016695.5,286047001.9,N
1636016715.3,286047002.2,N
1636016735.2,286047000.2,N
1636016755.0,286047002.8,N
1636016755.9,286047002.8,N
1636016775.7,286047000.1,N
1636016795.6,286047001.9,N
1636016815.4,286047001.6,N
1636016835.3,286047002.6,N
1636016855.1,286047002.3,N
1636016856.0,286047002.3,N
1636016875.8,286047002.6,N
1636016895.7,286047002.2,N
1636016915.5,286047002.5,N
1636016935.3,286047002.6,N
1636016955.2,286047002.3,N
1636016975.0,286047002.8,Y
1636016975.9,286047002.8,P
1636016995.8,286046999.0,P
1636017015.6,286046999.6,N
1636017035.4,286046999.4,N
1636017055.3,286046999.1,N
1636017075.1,286046998.9,N
1636017095.9,286046996.8,N
1636017115.7,286046996.9,N
1636017135.5,286046996.7,N
1636017155.4,286046998.8,N
1636017175.2,286046997.0,N
1636017195.0,286046996.5,N
1636017195.9,286046996.5,N
1636017215.8,286046999.3,N
1636017235.6,286046999.2,N
1636017255.5,286046997.1,N
1636017275.3,286046996.5,N
1636017295.1,286046999.4,N
1636017315.9,286046998.8,N
1636017335.7,286046998.2,N
1636017355.6,286047001.2,N
1636017375.4,286046998.4,N
1636017395.2,286047001.1,N
1636017415.1,286046998.1,N
1636017416.0,286046998.1,N
1636017435.8,286046998.2,N
1636017455.7,286046998.6,N
1636017475.5,286047000.5,N
1636017495.3,286047001.2,N
1636017515.2,286046998.1,N
1636017535.0,286046998.1,N
1636017535.9,286046998.1,N
1636017555.7,286046998.3,N
1636017575.6,286046998.8,N
1636017595.4,286046998.3,N
1636017615.3,286046998.4,N
1636017635.1,286047000.4,N
1636017636.0,286047000.4,N
1636017655.8,286046999.7,N
1636017675.7,286047002.7,N
1636017695.5,286046999.8,N
1636017715.3,286046999.9,N
1636017735.2,286047002.3,N
1636017755.0,286047002.0,N
1636017755.9,286047002.0,N
1636017775.8,286047001.6,N
1636017795.6,286047001.4,N
1636017815.5,286047003.7,N
1636017835.3,286047003.1,N
1636017855.1,286047003.1,N
1636017875.9,286047006.0,Y
1636017895.7,286047003.1,P
1636017915.5,286047003.4,N
1636017935.4,286047002.9,N
1636017955.2,286047004.1,Y
1636017975.1,286047000.9,P
1636017976.0,286047000.9,N
1636017995.8,286046998.8,N
1636018015.6,286047000.7,N
1636018035.5,286047000.7,N
1636018055.3,286046999.7,N
1636018075.2,286047000.3,N
1636018095.9,286047002.8,N
1636018115.7,286047000.3,N
1636018135.6,286046998.1,N
1636018155.4,286046998.8,N
1636018175.2,286046998.5,N
1636018195.1,286046999.3,N
1636018196.0,286046999.3,N
1636018215.8,286046998.1,N
1636018235.7,286046998.3,N
1636018255.5,286046998.6,N
1636018275.3,286046999.3,N
1636018295.2,286047001.1,N
1636018315.0,286046999.0,N
1636018315.9,286046999.0,N
1636018335.8,286046999.0,N
1636018355.6,286047000.9,N
1636018375.4,286046999.9,N
1636018395.3,286047002.4,N
1636018415.1,286047002.4,N
1636018435.8,286047002.3,N
1636018455.7,286047002.0,N
1636018475.5,286047000.9,N
1636018495.4,286046998.2,N
1636018515.2,286046998.5,N
1636018535.0,286046998.4,N
1636018535.9,286046998.4,N
1636018555.8,286046998.6,N
1636018575.6,286046997.0,N
1636018595.4,286046999.5,N
1636018615.3,286046997.1,N
1636018635.1,286046997.0,N
1636018655.9,286046999.4,N
1636018675.7,286046996.5,N
1636018695.5,286046999.3,N
1636018715.4,286046999.4,N
1636018735.2,286046997.2,N
1636018755.0,286046996.6,N
1636018756.0,286046996.6,N
1636018775.8,286046999.2,N
1636018795.6,286046998.4,N
1636018815.5,286046999.5,N
1636018835.3,286046997.7,N
1636018855.1,286046997.7,N
1636018875.9,286046996.6,N
1636018895.7,286046997.0,N
1636018915.5,286046997.2,N
1636018935.4,286046999.5,N
1636018955.2,286046998.3,N
1636018975.1,286046999.3,N
1636018976.0,286046999.3,N
1636019025.8,286046999.2,E
1636019035.7,286046999.0,N
1636019055.6,286047000.9,P
1636019075.4,286047000.9,N
1636019095.2,286047002.8,Y
1636019115.1,286047000.3,P
1636019116.0,286047000.3,P
1636019135.8,286047000.2,P
1636019155.7,286047000.9,Y
1636019175.5,286047001.0,P
1636019195.3,286047001.2,P
1636019215.2,286047000.2,N
1636019235.0,286047000.3,N
1636019235.9,286047000.3,N
1636019255.8,286046999.8,N
1636019275.6,286047000.2,N
1636019295.4,286047000.1,N
1636019315.3,286047001.6,Y
1636019335.1,286046999.9,P
1636019355.8,286046999.9,N
1636019375.7,286046999.7,N
1636019395.5,286047002.1,Y
1636019415.4,286047002.8,P
1636019435.2,286047002.6,N
1636019455.0,286047000.5,N
1636019455.9,286047000.5,N
1636019475.8,286047001.2,N
1636019495.6,286046996.9,N
1636019515.5,286046999.5,N
1636019535.3,286046998.5,N
1636019555.1,286047000.8,N
1636019575.9,286046999.8,N
1636019595.7,286047000.1,N
1636019615.5,286046999.7,N
1636019635.4,286047002.4,N
1636019655.2,286047000.9,N
1636019675.0,286047000.0,N
1636019676.0,286047000.0,N
1636019695.8,286047001.2,N
1636019715.6,286047001.2,N
1636019735.5,286047000.9,N
1636019755.3,286047000.2,N
1636019775.1,286047000.6,N
1636019795.9,286047002.8,N
1636019815.7,286047001.4,N
1636019835.6,286047002.0,N
1636019855.4,286047002.3,N
1636019875.2,286047002.6,N
1636019895.1,286047001.9,N
1636019896.0,286047001.9,N
1636019915.8,286047001.5,N
1636019935.7,286047001.7,N
1636019955.5,286047002.7,N
1636019975.3,286047002.6,N
1636019995.2,286047002.4,N
